Lid_Strength_Index
6 6 6 6 6 6 6 6 6 6 6 6 6 6 6 6 5 5 5 3 5 9 8 7 7 8 8 8 11 9 9 7 8 10 10 10 11 10 11 9 10 11 13 14 13 15 16 6 7 11 7 5 6 5
6 6 6 6 5 5 6 6 6 6 6 6 6 6 6 5 5 5 7 4 3 7 8 5 5 5 5 5 7 7 8 8 7 8 8 10 12 11 11 14 7 13 10 12 11 11 6 5 6 4 4 5 5 6
4 4 4 4 4 4 5 5 5 5 5 6 6 6 5 6 5 5 6 5 5 7 8 7 7 4 3 3 3 9 7 6 7 5 8 9 11 8 12 10 9 7 6 10 10 7 7 6 4 4 4 4 4 5
3 3 3 3 3 4 4 4 4 5 5 5 5 5 5 5 5 5 6 5 6 8 12 9 4 5 3 3 3 4 4 4 4 5 8 10 11 7 10 9 10 8 7 9 10 7 6 5 5 4 4 4 4 4
2 2 2 2 3 3 3 4 4 4 4 4 4 4 4 4 4 4 4 5 4 8 11 10 5 2 2 2 3 3 4 5 6 8 9 10 8 8 7 8 10 7 8 11 11 6 7 6 5 4 5 5 4 5
2 2 2 2 2 3 3 3 3 3 4 3 3 3 4 4 4 4 6 1 1 3 8 11 5 4 3 2 3 3 3 4 5 7 8 7 5 8 11 12 7 6 5 6 8 5 5 4 4 3 5 4 5 7
2 2 3 3 3 2 2 3 3 3 3 2 3 3 3 2 4 6 6 3 2 2 6 10 8 3 2 3 2 3 2 4 5 7 8 8 7 7 10 13 7 5 5 5 4 5 6 5 6 4 4 5 7 7
2 3 3 2 2 2 3 3 3 3 2 2 2 2 1 2 2 5 3 1 2 4 5 9 8 5 2 5 5 2 5 5 6 7 7 8 7 8 12 7 6 5 5 5 5 5 5 4 4 5 5 7 9 10
3 3 3 3 3 3 3 3 2 2 2 2 2 2 1 2 4 3 0 0 1 4 8 8 10 10 3 4 4 5 4 9 5 9 8 8 10 12 9 8 7 7 6 7 6 5 5 6 6 6 7 9 10 11
3 3 3 3 3 3 3 2 2 2 2 1 2 3 5 2 2 2 2 3 4 5 6 8 6 8 5 6 7 6 5 8 11 8 6 10 11 9 9 9 8 8 8 8 8 7 7 7 8 8 10 11 11 12
3 3 3 3 3 3 2 2 2 2 2 3 5 6 3 2 3 4 6 7 7 9 7 7 6 8 4 9 8 6 9 8 12 9 10 12 12 11 10 10 8 8 7 7 7 7 8 8 10 10 11 12 12 12
3 3 3 3 2 2 2 2 2 2 3 3 4 3 4 5 7 9 8 7 9 9 6 6 6 6 6 4 8 8 11 9 13 8 11 14 11 10 11 10 8 7 7 8 8 8 8 9 10 11 11 12 12 12
3 3 3 3 2 2 2 2 3 3 3 3 5 7 7 7 11 11 11 9 9 8 6 5 7 6 5 5 8 9 12 12 7 12 13 11 9 9 11 10 8 7 7 8 8 8 8 10 10 11 12 12 12 13
3 3 3 3 2 2 2 2 3 2 3 6 8 11 9 9 8 8 9 9 7 6 7 7 7 6 5 8 8 12 10 9 13 14 13 9 8 9 10 8 7 8 8 8 8 8 9 10 10 11 12 12 13 14
3 3 2 3 2 2 2 2 2 2 4 7 7 11 9 6 5 6 6 5 4 5 6 7 6 6 7 9 9 10 12 13 13 12 10 7 8 9 9 8 7 7 7 7 8 8 9 10 10 11 12 13 13 13
2 2 2 2 2 2 2 1 2 3 6 7 7 8 6 7 6 5 5 6 3 5 5 5 7 9 10 10 12 13 12 12 11 8 8 9 9 8 7 7 6 6 6 6 7 7 8 9 10 10 12 13 13 13
2 3 2 2 2 2 2 2 3 7 8 8 7 5 6 6 7 6 5 5 3 5 7 7 9 9 7 10 11 9 11 9 7 7 8 9 7 6 6 6 5 5 6 6 6 7 7 8 9 10 11 12 13 13
3 2 2 2 2 2 3 3 5 8 9 7 8 6 6 5 6 6 5 4 5 5 6 8 6 9 10 10 9 7 6 5 6 6 9 7 5 5 5 5 5 5 5 6 6 6 7 7 7 8 9 9 9 11
2 1 2 2 2 4 6 6 5 9 8 7 6 5 5 5 5 4 5 4 4 4 5 6 9 9 8 6 7 6 6 6 7 7 8 5 4 5 5 4 5 5 5 5 5 6 6 6 7 7 7 7 8 8
2 2 2 2 3 6 8 7 5 8 8 7 6 6 6 6 5 5 5 5 5 6 8 9 9 7 6 5 5 6 7 6 7 7 8 6 4 4 4 4 4 4 5 6 6 7 5 6 6 6 6 7 7 8
3 2 2 2 4 6 7 6 7 6 6 7 5 6 7 5 6 6 6 5 7 8 8 7 6 5 4 4 5 6 7 7 8 7 8 8 4 3 4 3 4 4 5 5 6 7 7 6 6 5 5 6 6 6
3 2 2 3 5 6 7 4 6 4 5 6 6 5 7 7 7 7 6 8 8 7 6 6 5 5 5 6 6 7 6 6 7 6 7 6 4 4 4 4 4 4 5 5 5 6 6 6 5 5 5 5 6 6
2 3 4 5 7 7 8 5 8 7 9 8 6 8 7 7 6 5 9 7 7 5 5 5 5 4 5 5 6 7 7 7 7 6 5 4 4 3 3 3 3 4 4 4 4 5 6 8 7 5 5 5 5 5
3 5 7 8 9 10 7 8 7 8 7 9 9 9 8 7 5 8 10 8 6 5 5 5 5 6 6 6 7 8 7 6 7 6 5 4 4 3 2 3 3 3 3 3 3 4 4 5 7 4 5 5 5 5
8 9 10 11 7 9 10 10 10 10 11 9 9 9 7 5 9 10 10 7 5 5 4 4 5 6 7 7 7 7 5 6 6 5 4 3 3 3 3 3 2 2 2 3 3 3 4 4 3 4 4 4 4 5
12 9 11 10 10 11 10 12 11 10 10 10 9 7 6 8 10 10 7 6 6 5 3 3 4 5 6 6 6 6 5 4 3 4 3 2 2 3 3 4 4 3 2 1 2 3 3 3 3 3 4 5 8 4
12 10 8 7 8 8 9 8 8 9 10 10 9 9 9 11 11 7 5 4 5 4 3 1 3 3 4 5 5 5 3 3 3 2 2 1 1 1 1 3 3 2 1 1 1 2 3 3 2 2 2 3 3 3
9 8 11 9 10 9 12 11 11 10 9 7 7 9 10 10 9 6 5 3 2 1 1 2 1 1 2 1 2 2 2 2 1 1 1 1 0 0 0 0 1 8 1 0 1 1 1 1 1 2 2 2 2 2
10 8 8 11 11 10 10 11 10 8 6 7 9 8 7 5 4 4 3 2 1 2 2 2 2 1 2 1 1 2 2 2 3 4 4 4 3 2 1 0 1 0 0 0 8 5 1 1 1 1 1 1 1 1
9 7 10 10 11 11 9 9 9 8 7 8 7 7 5 4 3 2 2 2 3 2 2 2 1 1 3 3 3 2 1 1 1 2 3 4 3 1 1 1 1 1 0 0 1 1 10 4 5 1 1 1 1 1
7 8 9 10 10 8 7 7 7 7 8 8 8 9 8 7 6 4 6 2 2 2 3 4 3 2 2 3 3 3 3 1 1 1 0 1 1 1 1 0 0 0 0 1 1 1 1 2 1 1 1 1 1 3
8 9 10 11 10 8 7 9 10 10 9 8 8 8 10 10 10 8 6 4 4 4 6 4 4 5 3 2 2 3 7 2 1 1 1 1 1 0 0 0 0 0 0 1 1 1 2 2 1 1 1 1 1 1
8 8 9 10 10 10 8 9 10 9 9 9 8 8 9 9 11 9 5 6 5 5 5 4 3 3 3 3 4 5 7 7 9 11 10 10 11 6 0 -0 -0 0 1 1 1 1 1 1 1 1 1 1 1 1